Home   Weather   Lahr   Past weeks

Flag for Germany Past Weather in Lahr, Baden-Württemberg, Germany — Yesterday and Last 2 Weeks

Now
15 °F

Fog.


Feels Like: 15 °F
Forecast: 16 / 32 °F
Wind: 1 mph from South

Location: Lahr

Current Time: Jan 20, 2017 at 7:10:35 am

Latest Report: Jan 20, 2017 at 6:00 am


Visibility: 2 mi

Pressure: 30.54 "Hg

Humidity: 93%

Dew Point: 13 °F

Location of LahrLocation

Past Weather in Lahr — Graph

°F

Lahr Temperature Yesterday

Maximum temperature yesterday: 29 °F (at 3:00 pm)
Minimum temperature yesterday: 17 °F (at 9:00 am)
Average temperature yesterday: 21 °F

High & Low Weather Summary for the Past Weeks

 TemperatureHumidityPressure
High47 °F (Jan 13, 12:00 am)100% (Jan 10, 8:00 am)30.77 "Hg (Jan 10, 8:00 am)
Low11 °F (Jan 6, 9:00 am)55% (Jan 18, 3:00 pm)29.38 "Hg (Jan 13, 12:00 am)
Average30 °F85%30.29 "Hg
* Reported Jan 5 6:00 am — Jan 20 6:00 am, Lahr, Weather by CustomWeather, © 2017

Note: Actual official high and low records may vary slightly from our data, if they occured in-between our weather recording intervals... More about our weather records

Advertising

Lahr Weather History for the Previous 24 Hours

Scroll right to see more
 ConditionsComfort  
Time TempWeatherWind HumidityBarometerVisibility
6:00 am
Fri, Jan 20
15 °FFog.1 mph93%30.54 "Hg2 mi
5:00 am15 °FFog.2 mph92%30.53 "Hg3 mi
3:00 am15 °FFog.No wind93%30.54 "Hg2 mi
2:00 am16 °FFog.No wind93%30.54 "Hg2 mi
12:00 am17 °FFog.1 mph92%30.55 "Hg2 mi
11:00 pm
Thu, Jan 19
18 °FFog.No wind95%30.55 "Hg2 mi
9:00 pm21 °FFog.1 mph89%30.55 "Hg3 mi
8:00 pm22 °FFog.No wind85%30.54 "Hg4 mi
6:00 pm24 °FPassing clouds.6 mph80%30.54 "Hg2 mi
5:00 pm26 °FSunny.5 mph75%30.53 "Hg4 mi
3:00 pm29 °FSunny.5 mph67%30.53 "Hg6 mi
2:00 pm29 °FSunny.5 mph69%30.54 "Hg5 mi
12:00 pm25 °FPassing clouds.5 mph77%30.57 "Hg6 mi
11:00 am22 °FSunny.2 mph80%30.58 "Hg4 mi
9:00 am17 °FFog.1 mph92%30.57 "Hg3 mi
8:00 am17 °FFog.2 mph90%30.57 "Hg3 mi
Weather by CustomWeather, © 2017

See weather overviewHow to use our weather pages